Hourly Data Report for October 18, 2014

All times are specified in Local Standard Time (LST). Add 1 hour to adjust for Daylight Saving Time where and when it is observed.

WINNIPEG A CS
MANITOBA

49°55'00.000" N
97°14'58.000" W
238.70 m
502S001
71849
XWG

Download Data

Hourly Data (October 2014)
Hourly Data Report for October 18, 2014
Temp Definition
°C
Dew Point Temp Definition
°C
Rel Hum Definition
%
Wind Dir Definition
10's deg

Wind Spd Definition
km/h
Visibility Definition
km
Stn Press Definition
kPa
Hmdx Definition


Wind Chill Definition


Weather Definition


TIME
00:00 4.6 0.2 73 8 7   99.50     LegendNANA
01:00 3.8 -0.6 73 8 5   99.50     LegendNANA
02:00 2.8 -1.0 76 1 3   99.49     LegendNANA
03:00 1.4 -0.9 85 30 5   99.50     LegendNANA
04:00 1.5 -1.0 84 1 1   99.51     LegendNANA
05:00 2.0 -0.3 85 6 6   99.47     LegendNANA
06:00 2.7 0.2 83 9 3   99.45     LegendNANA
07:00 3.5 0.7 82 12 7   99.41     LegendNANA
08:00 4.0 0.4 77 15 10   99.40     LegendNANA
09:00 4.5 0.7 76 16 14   99.36     LegendNANA
10:00 4.7 1.0 77 18 19   99.34     LegendNANA
11:00 4.9 1.2 77 20 22   99.26     LegendNANA
12:00 5.1 1.7 79 19 24   99.15     LegendNANA
13:00 4.9 1.6 79 19 27   99.05     LegendNANA
14:00 6.0 2.0 75 18 26   98.93     LegendNANA
15:00 6.8 2.1 72 18 29   98.82     LegendNANA
16:00 7.0 2.3 72 18 30   98.73     LegendNANA
17:00 6.8 2.4 73 17 34   98.62     LegendNANA
18:00 6.7 2.7 75 18 30   98.54     LegendNANA
19:00 6.5 2.9 78 19 26   98.47     LegendNANA
20:00 5.9 2.7 80 19 32   98.39     LegendNANA
21:00 6.0 2.9 81 18 32   98.36     LegendNANA
22:00 5.7 3.1 83 18 27   98.27     LegendNANA
23:00 5.7 3.3 85 18 32   98.10     LegendNANA

Notes on Data Quality.

Legend

  • E = Estimated
  • M = Missing
  • NA = Not Available
  • ‡ = Partner data that is not subject to review by the National Climate Archives
Date modified: